STARLINK-1885 (47168 NORAD) Tracking and Keplerian Element Data

This shows tracking and keplerian element data for the satellite.

Feedback or suggestion? Click here.




ElementValue
Catalog47168
NameSTARLINK-1885
Epoch Orbit175
Epoch Day59.91667824
Epoch Year2021
RAAN258.2283
Inclination53.0538
Eccentricity0.0002254
Argument of Perigee78.3637
Mean Anonmoly81.5461
Mean Motion15.06376467
Decay Rate0.00020392
L11 47168U 20088AY 21059.91667824 .00020392 00000-0 13848-2 0 9996
L22 47168 53.0538 258.2283 0002254 78.3637 81.5461 15.06376467 1752

Live tracking and technical data element details for STARLINK-1885 (NORAD 47168). STARLINK-1885 can be tracked NOW for your location showing map with azimuth and elevation plus other details from your city location.

Track the satellite on the map from your city or location and see movement details for azimuth, elevation, latitude, longitude, range, height, and movement on the map or in text.







IsCatalogInMostPopularTable: catalog: 47168, numindb: 35
Update: records affected: 1



GetName: 47168 STARLINK-1885

Hit Count: updated at: Mon, 01 Mar 2021 22:02:39 GMT